Location: Unspecified
(44.4377°N, 88.0525°W)
Time: 00:47:05
(UTC-05:00)

CZ-3 Stage 3 - Visible Passes

Search period start: 23 July 2014 00:00
Search period end: 02 August 2014 00:00
Orbit: 424 x 34828 km, 30.6° (Epoch: 21 July)

Date Brightness Start Highest point End Pass type
(mag) Time Alt. Az. Time Alt. Az. Time Alt. Az.
23 Jul 8.3 05:34:19 10° S 08:37:15 20° SSE 09:01:21 10° ESE visible
26 Jul 8.2 05:16:49 10° S 08:37:39 22° SSE 09:00:53 10° ESE visible
29 Jul 8.2 04:59:53 10° S 08:37:51 23° SSE 09:00:10 10° ESE visible
01 Aug 8.1 04:43:31 10° S 08:37:51 25° SSE 08:59:16 10° ESE visible
